This is the latest recevied weather packets stored in our database for station/object PD2BVG. If no packets are shown the sender has not sent any weather packets the latest 1 day(s).
| Time | Temp. | Humidity | Pressure | Rain* | Wind** | Luminosity | Snow |
|---|---|---|---|---|---|---|---|
| 1777968843 | 12.22° C | 82% | 1012.4 hPa | 0 mm | 2.24 m/s, 20° | 255 W/m² | - |
| 1777968782 | 12.22° C | 82% | 1012.3 hPa | 0 mm | 2.68 m/s, 28° | 392 W/m² | - |
| 1777968722 | 12.22° C | 82% | 1012.3 hPa | 0 mm | 2.24 m/s, 48° | 223 W/m² | - |
| 1777968662 | 12.22° C | 82% | 1012.4 hPa | 0 mm | 2.24 m/s, 27° | 181 W/m² | - |
| 1777968602 | 12.22° C | 81% | 1012.3 hPa | 0 mm | 2.24 m/s, 3° | 202 W/m² | - |
| 1777968543 | 12.22° C | 81% | 1012.3 hPa | 0 mm | 2.24 m/s, 30° | 202 W/m² | - |
| 1777968483 | 12.22° C | 81% | 1012.4 hPa | 0 mm | 2.68 m/s, 8° | 195 W/m² | - |
| 1777968436 | 12.22° C | 81% | 1012.4 hPa | 0 mm | 1.79 m/s, 354° | 183 W/m² | - |
| 1777968361 | 12.22° C | 81% | 1012.3 hPa | 0 mm | 1.79 m/s, 0° | 174 W/m² | - |
| 1777968302 | 12.22° C | 81% | 1012.3 hPa | 0 mm | 2.24 m/s, 350° | 185 W/m² | - |
| 1777968243 | 12.22° C | 81% | 1012.3 hPa | 0 mm | 2.24 m/s, 6° | 171 W/m² | - |
| 1777968184 | 12.22° C | 81% | 1012.2 hPa | 0 mm | 2.24 m/s, 45° | 204 W/m² | - |
| 1777968123 | 12.22° C | 80% | 1012.2 hPa | 0 mm | 2.24 m/s, 1° | 204 W/m² | - |
| 1777968062 | 12.78° C | 80% | 1012.2 hPa | 0 mm | 2.24 m/s, 34° | 206 W/m² | - |
| 1777968003 | 12.78° C | 80% | 1012.1 hPa | 0 mm | 2.24 m/s, 31° | 283 W/m² | - |
| 1777967942 | 12.78° C | 79% | 1012.1 hPa | 0 mm | 2.68 m/s, 48° | 283 W/m² | - |
| 1777967882 | 12.78° C | 79% | 1012.1 hPa | 0 mm | 3.58 m/s, 355° | 299 W/m² | - |
| 1777967822 | 12.78° C | 79% | 1012.1 hPa | 0 mm | 3.13 m/s, 357° | 243 W/m² | - |
| 1777967762 | 12.78° C | 79% | 1012 hPa | 0 mm | 2.68 m/s, 37° | 278 W/m² | - |
| 1777967702 | 12.78° C | 79% | 1012 hPa | 0 mm | 2.68 m/s, 37° | 598 W/m² | - |
| 1777967642 | 12.78° C | 79% | 1012 hPa | 0 mm | 2.68 m/s, 37° | 587 W/m² | - |
| 1777967582 | 12.78° C | 80% | 1012 hPa | 0 mm | 2.68 m/s, 37° | 255 W/m² | - |
| 1777967524 | 12.78° C | 80% | 1012.1 hPa | 0 mm | 2.68 m/s, 37° | 229 W/m² | - |
| 1777967462 | 12.78° C | 79% | 1012.1 hPa | 0 mm | 2.24 m/s, 24° | 419 W/m² | - |
| 1777967403 | 12.78° C | 80% | 1012.2 hPa | 0 mm | 2.24 m/s, 24° | 559 W/m² | - |
* Rain latest hour (hover to see other rain measurements)
** Current wind speed in m/s (hover to see current wind gust speed)